Weather observations for the past three days for
Mitchell, Mitchell Municipal Airport
Imperial (Metric)
Date Time (cdt) Wind (mph) Vis. (mi.) Weather Sky Cond. Temperature (ºF) Relative Humidity Wind Chill (°F) Heat Index (°F) Pressure Precipitation (in)
Air Dwpt 6 hour altimeter (in) sea level (mb) 1 hr 3 hr 6 hr
Max. Min.
19 09:53 NW 3 4.00 Thunderstorm Light Rain Fog/Mist SCT070 BKN085 OVC110 66.9 63 87% 30.07 1017.6 0.03 0.03
19 08:53 SE 7 10.00 Light Rain FEW120 68 62.1 81% 30.04 1016.6
19 07:53 SE 13 10.00 Fair CLR 68 62.1 81% 30.03 1016.1
19 06:53 SE 8 10.00 Mostly Cloudy SCT070 BKN080 66.9 62.1 70 66 84% 30.04 1016.5
19 05:53 S 8 10.00 A Few Clouds FEW070 66 62.1 87% 30.04 1016.3
19 04:53 SE 8 10.00 Fair CLR 66 62.1 87% 30.04 1016.5
19 03:53 S 9 10.00 Fair CLR 66.9 63 87% 30.05 1016.8
19 02:53 SE 10 10.00 Fair CLR 68 63 84% 30.06 1017.1
19 01:53 SE 9 10.00 Fair CLR 69.1 63 81% 30.07 1017.5
19 00:53 SE 9 10.00 Fair CLR 70 63 82 70 79% 30.08 1017.7
18 23:53 SE 9 10.00 Fair CLR 72 63 73% 30.09 1017.9
18 22:53 SE 9 10.00 Overcast OVC060 73 64 74% 30.09 1018.3
18 21:53 SE 9 10.00 Mostly Cloudy BKN060 75 63 66% 77 30.09 1018.1
18 20:53 SE 12 10.00 Overcast OVC060 78.1 63 60% 80 30.08 1018.0
18 19:53 SE 10 10.00 Fair CLR 79 63 58% 81 30.08 1018.0
18 18:53 SE 12 10.00 Fair CLR 82 63 84 79 53% 83 30.09 1018.2
18 17:53 S 10 G 21 10.00 A Few Clouds FEW055 82.9 63 51% 84 30.1 1018.8
18 16:53 SE 12 10.00 Fair CLR 82 63 53% 83 30.12 1019.2
18 15:53 SE 14 G 24 10.00 A Few Clouds FEW050 82 61 49% 83 30.14 1020.0
18 14:53 SE 10 10.00 Fair CLR 82 62.1 51% 83 30.15 1020.4
18 13:53 S 10 G 21 10.00 Fair CLR 81 61 51% 82 30.17 1021.0
18 12:53 SE 12 G 17 10.00 A Few Clouds FEW045 80.1 61 80.1 57 52% 81 30.19 1021.6
18 11:53 S 12 10.00 Fair CLR 77 60.1 56% 79 30.2 1021.9
18 10:53 S 9 10.00 Fair CLR 73.9 59 60% 30.21 1022.3
18 09:53 SE 12 10.00 Fair CLR 71.1 57 61% 30.22 1022.8
18 08:53 SE 9 10.00 Fair CLR 66 57 73% 30.22 1023.1
18 07:53 SE 5 10.00 Fair CLR 61 55.9 84% 30.23 1023.2
18 06:53 E 6 10.00 Fair CLR 57 54 62.1 55 90% 30.22 1023.0
18 05:53 SE 6 10.00 Fair CLR 55.9 53.1 90% 30.22 1023.0
18 04:53 SE 5 10.00 Fair CLR 57 54 90% 30.22 1022.8
18 03:53 SE 5 10.00 Fair CLR 57.9 55 90% 30.21 1022.6
18 02:53 E 3 10.00 Fair CLR 57.9 55 90% 30.22 1022.7
18 01:53 SE 5 10.00 Fair CLR 60.1 55 84% 30.22 1022.8
18 00:53 E 3 10.00 Fair CLR 61 55.9 78.1 61 84% 30.22 1022.7
17 23:53 Calm 10.00 Fair CLR 63 57 81% 30.21 1022.4
17 22:53 Calm 10.00 Fair CLR 64.9 57.9 78% 30.2 1022.1
17 21:53 NE 6 10.00 Fair CLR 66 57.9 75% 30.19 1021.9
17 20:53 NE 6 10.00 Fair CLR 69.1 60.1 73% 30.18 1021.6
17 19:53 N 6 10.00 A Few Clouds FEW055 73 61 66% 30.18 1021.5
17 18:53 N 6 10.00 Fair CLR 77 59 81 75.9 54% 79 30.17 1021.3
17 17:53 NE 8 10.00 Partly Cloudy FEW050 SCT065 75.9 59 56% 78 30.17 1021.3
17 16:53 N 12 10.00 A Few Clouds FEW050 80.1 59 49% 81 30.18 1021.3
17 15:53 N 13 G 16 10.00 A Few Clouds FEW050 81 60.1 49% 82 30.18 1021.5
17 14:53 Vrbl 5 G 18 10.00 Fair CLR 80.1 60.1 51% 81 30.19 1021.9
17 13:53 NE 5 10.00 Fair CLR 79 60.1 52% 80 30.2 1022.0
17 12:53 N 12 10.00 Fair CLR 78.1 61 78.1 60.1 56% 80 30.2 1022.2
17 11:53 NE 8 10.00 Fair CLR 75.9 57.9 54% 78 30.21 1022.5
17 10:53 E 7 10.00 Fair CLR 73 57.9 59% 30.21 1022.5
17 09:53 E 6 10.00 Fair CLR 70 57.9 66% 30.2 1022.1
17 08:53 E 8 10.00 Fair CLR 66.9 59 76% 30.2 1022.0
17 07:53 Calm 7.00 Fair CLR 64 61 90% 30.18 1021.3
17 06:53 Calm 2.00 Fog/Mist CLR 60.1 57.9 64 57.9 93% 30.16 1020.9
17 05:53 Calm 4.00 Fog/Mist CLR 59 57.9 96% 30.14 1020.2
17 04:53 N 3 7.00 Fair CLR 60.1 59 96% 30.11 1019.1
17 03:53 N 5 7.00 Fair CLR 60.1 59 96% 30.08 1018.3
17 02:53 N 3 9.00 Fair CLR 62.1 60.1 93% 30.08 1018.1
17 01:53 N 5 9.00 A Few Clouds FEW049 62.1 60.1 93% 30.08 1017.9
17 00:53 Calm 10.00 Fair CLR 63 61 80.1 63 93% 30.07 1017.8
16 23:53 Calm 10.00 Fair CLR 66 61 84% 30.06 1017.1
16 22:53 E 5 10.00 Fair CLR 66.9 62.1 84% 30.05 1017.0
16 21:53 NE 8 10.00 Overcast SCT060 OVC110 71.1 62.1 73% 30.04 1016.4
16 20:53 NE 5 10.00 Partly Cloudy SCT120 73 64 74% 30.02 1015.7
16 19:53 N 3 10.00 Fair CLR 78.1 64.9 64% 80 30 1015.2
16 18:53 E 3 10.00 Fair CLR 79 63 81 72 58% 81 29.99 1014.9
16 17:53 NE 5 10.00 A Few Clouds FEW040 78.1 63 60% 80 29.99 1015.0
16 16:53 NW 3 10.00 Partly Cloudy SCT037 80.1 63 56% 81 30 1015.2
16 15:53 N 5 10.00 Mostly Cloudy BKN120 75.9 64 67% 78 30 1015.3
16 14:53 Vrbl 3 10.00 Fair CLR 78.1 63 60% 80 29.99 1014.8
16 13:53 Vrbl 5 10.00 Fair CLR 78.1 64.9 64% 80 29.98 1014.6
16 12:53 NE 6 10.00 Light Rain FEW028 BKN090 OVC110 72 66 80.1 64.9 82% 29.97 1014.2 0.03 0.03
16 11:53 NW 9 10.00 Overcast FEW039 BKN047 OVC090 75 63 66% 77 30.01 1015.5
16 10:53 NW 9 10.00 Mostly Cloudy BKN100 77 61 58% 79 30 1015.1
Date Time (cdt) Wind (mph) Vis. (mi.) Weather Sky Cond. Air Dwpt Max. Min. Relative Humidity Wind Chill (°F) Heat Index (°F) altimeter (in) sea level (mb) 1 hr 3 hr 6 hr
6 hour
Temperature (ºF) Pressure Precipitation (in)